Temp
19 19 19 18 21 23 24 24 24 23 23 21 22 21 20 16 19 18 18 18 17 17 17 17 17 18 18 18 19 19 19 19 19 18 18 18 18 18 19 18 18 18 18 18 18 18 18 18 17
19 18 18 18 23 24 23 24 23 23 21 20 20 20 18 16 15 17 17 17 18 18 18 17 18 18 18 18 18 18 18 18 18 18 18 18 19 18 18 18 18 18 19 17 17 18 18 18 18
18 18 19 21 23 24 24 24 23 21 21 21 20 18 18 15 15 17 17 17 18 18 18 18 18 18 18 17 17 18 18 18 18 18 18 18 18 18 18 18 19 18 18 18 18 18 18 18 18
18 19 18 23 24 23 24 24 22 22 21 20 19 18 16 15 16 17 17 17 18 18 17 18 18 18 17 18 18 18 18 18 18 18 18 18 18 17 18 18 18 19 18 18 18 18 17 17 17
18 19 22 24 24 24 24 23 23 23 21 20 19 17 16 16 17 17 18 18 18 18 17 18 18 18 18 17 17 18 18 18 19 18 18 18 18 18 18 18 18 19 18 18 18 18 17 17 17
19 19 25 24 24 24 23 22 21 21 20 18 18 18 15 16 17 18 18 18 18 18 17 18 18 18 18 18 18 17 18 18 18 18 18 19 18 18 18 18 18 18 18 18 18 18 18 17 17
20 22 23 24 23 24 23 22 22 21 21 19 18 18 15 16 18 18 18 18 18 18 18 18 17 18 19 18 18 18 18 18 18 17 17 18 18 18 18 18 18 18 18 18 18 18 18 18 17
19 22 24 24 24 24 23 22 21 22 21 19 20 18 16 16 19 19 19 18 17 18 18 18 19 18 18 18 18 19 18 18 18 18 18 18 18 18 18 18 18 18 18 17 17 18 18 18 18
19 24 24 24 24 23 23 23 21 21 21 21 19 19 17 16 18 18 18 17 16 18 18 18 19 19 19 19 19 19 19 19 19 18 19 19 18 18 18 18 18 18 17 17 17 17 18 18 18
21 23 23 24 24 24 23 23 22 22 21 19 19 18 17 17 18 18 17 16 16 18 18 18 18 18 19 19 19 19 19 19 19 18 18 18 18 18 18 18 17 17 16 16 17 17 17 18 17
23 23 23 24 24 24 24 22 23 22 23 21 20 18 18 18 18 18 17 17 18 19 18 18 19 19 19 19 20 19 20 19 18 18 18 18 18 18 18 18 17 16 16 16 16 16 17 17 17
24 23 23 23 23 24 24 23 22 23 23 21 20 18 17 17 17 18 17 18 19 19 19 19 19 19 19 20 20 20 20 19 18 19 18 18 18 18 18 18 18 17 16 16 16 16 17 17 17
24 23 23 23 24 24 23 23 22 21 21 21 19 17 17 17 17 18 18 20 19 19 19 19 20 20 20 20 20 20 19 19 19 19 19 19 18 18 18 18 18 18 17 16 16 16 17 17 17
24 24 24 24 24 24 25 23 23 20 20 20 19 18 18 18 18 18 19 18 19 20 20 20 20 20 20 20 20 20 19 19 19 19 19 19 19 18 18 18 18 18 17 17 16 17 17 18 18
23 24 24 24 23 24 24 24 24 20 20 20 20 19 18 18 19 19 19 19 20 20 20 20 20 20 20 20 20 19 19 19 19 19 19 19 19 19 18 18 18 18 18 17 17 17 17 18 18
25 25 25 23 24 22 24 24 22 21 21 21 20 20 20 19 21 21 21 21 21 21 21 20 20 20 20 20 20 19 19 20 19 20 20 19 19 19 19 18 18 18 18 17 17 18 18 18 18
25 25 23 24 24 25 25 24 22 21 22 21 21 20 20 19 20 22 22 21 21 21 21 21 20 20 20 20 20 20 19 20 20 20 20 20 19 19 19 19 18 18 18 17 17 17 18 18 18
26 25 23 23 24 24 24 24 23 22 22 22 21 21 20 21 21 22 22 22 22 22 21 21 21 21 20 20 20 20 20 20 20 20 20 20 20 19 19 19 18 18 18 18 17 17 18 18 18
27 27 26 24 25 25 25 24 23 22 23 22 22 22 22 22 22 22 23 23 22 22 22 22 21 21 21 21 20 20 20 20 20 20 20 20 20 19 19 19 18 18 18 18 18 18 18 18 18
26 26 27 25 25 25 24 24 23 23 23 23 22 22 22 23 22 23 22 22 23 23 23 22 22 22 21 21 21 20 20 20 20 20 20 20 20 20 19 19 19 18 18 18 19 19 19 19 18
26 27 26 27 24 24 24 24 23 24 23 23 23 23 23 22 23 22 23 23 23 23 24 23 23 22 22 21 21 20 20 20 20 20 20 20 20 20 19 19 19 18 19 18 19 19 19 18 18
28 27 27 25 25 26 24 27 23 24 24 23 24 23 23 23 22 22 23 23 24 25 24 24 24 23 22 22 21 21 21 20 20 20 21 20 20 20 20 19 19 18 18 19 19 19 18 19 18
26 27 26 26 25 25 24 25 25 23 24 24 24 24 24 24 24 24 24 25 25 25 25 25 24 23 23 22 21 21 21 21 20 20 21 21 21 20 20 19 19 19 18 19 19 19 19 19 19
26 26 25 25 26 26 24 25 27 24 25 26 25 24 24 23 23 24 25 25 26 25 25 25 25 24 23 22 22 21 21 21 21 21 21 21 21 20 20 20 19 19 19 19 19 19 19 19 19
27 28 27 27 27 27 23 24 27 26 25 25 25 24 23 23 23 23 25 25 25 25 25 25 25 24 24 23 22 21 21 21 21 21 21 21 21 21 21 20 20 20 20 19 19 19 19 19 19
28 29 31 28 28 27 24 26 28 26 24 23 24 23 22 22 23 23 24 25 25 26 26 26 26 25 24 24 23 22 21 21 21 21 21 21 21 21 21 21 20 20 21 20 19 19 20 20 19
29 29 27 26 23 26 26 26 26 26 25 23 23 22 22 22 22 22 23 24 25 25 26 26 26 26 25 24 23 23 22 21 21 21 21 21 21 21 21 21 21 20 20 20 20 20 20 20 20
30 26 29 28 27 27 27 25 28 27 24 23 23 22 22 21 22 22 23 23 24 25 24 26 26 26 26 25 25 24 23 22 22 22 21 21 21 21 21 21 21 21 20 20 20 20 20 21 21
29 29 25 27 26 29 29 29 25 25 23 23 22 22 21 21 24 25 25 25 24 24 24 25 25 25 26 26 25 25 24 23 23 22 22 22 21 21 21 21 20 21 21 21 20 20 20 20 20
28 28 30 31 27 25 27 29 24 24 24 23 22 21 21 22 22 22 23 24 25 25 25 26 25 25 26 25 25 25 25 24 23 23 23 22 22 21 21 21 21 21 21 21 21 21 20 20 20
Height
1530 1530 1529 1529 1533 1527 1533 1534 1529 1534 1537 1539 1541 1542 1546 1551 1552 1563 1563 1565 1568 1570 1572 1573 1574 1575 1574 1575 1575 1575 1576 1576 1578 1579 1580 1580 1580 1580 1580 1580 1580 1581 1581 1582 1583 1584 1584 1585 1585
1530 1531 1531 1530 1533 1535 1538 1530 1534 1537 1541 1542 1543 1547 1548 1555 1555 1560 1564 1568 1571 1571 1574 1575 1576 1576 1576 1576 1576 1577 1579 1579 1581 1582 1583 1583 1583 1583 1582 1582 1582 1583 1584 1585 1586 1587 1587 1587 1587
1531 1531 1533 1530 1532 1537 1537 1532 1535 1541 1542 1543 1546 1549 1553 1557 1557 1561 1565 1569 1571 1574 1575 1576 1577 1577 1577 1578 1579 1579 1581 1581 1583 1585 1585 1586 1586 1586 1584 1584 1585 1585 1586 1587 1588 1589 1589 1590 1590
1532 1534 1534 1531 1535 1534 1531 1534 1537 1540 1543 1544 1547 1552 1557 1559 1561 1563 1567 1570 1572 1575 1577 1577 1578 1579 1580 1581 1581 1581 1583 1584 1585 1587 1588 1589 1589 1589 1588 1587 1587 1588 1588 1589 1589 1590 1591 1592 1592
1533 1533 1531 1532 1535 1533 1535 1537 1539 1539 1543 1547 1548 1556 1560 1564 1564 1566 1570 1572 1574 1576 1578 1579 1579 1580 1581 1583 1583 1585 1586 1587 1588 1589 1590 1591 1591 1591 1590 1590 1590 1590 1590 1590 1591 1592 1593 1593 1593
1533 1533 1531 1537 1538 1536 1538 1539 1541 1542 1545 1548 1551 1555 1563 1565 1567 1568 1571 1573 1575 1577 1578 1580 1581 1581 1583 1584 1585 1586 1588 1589 1590 1591 1592 1593 1593 1593 1592 1592 1592 1592 1592 1592 1593 1593 1594 1594 1594
1533 1531 1536 1537 1539 1538 1539 1540 1541 1542 1545 1549 1551 1555 1564 1566 1569 1570 1572 1574 1576 1577 1578 1581 1582 1583 1584 1585 1587 1588 1590 1590 1591 1592 1593 1593 1594 1594 1594 1594 1593 1593 1593 1593 1594 1594 1595 1596 1596
1533 1533 1536 1537 1539 1540 1540 1541 1543 1545 1548 1550 1552 1556 1562 1564 1567 1571 1573 1576 1577 1578 1580 1582 1583 1583 1586 1587 1588 1589 1591 1591 1593 1593 1594 1595 1596 1595 1595 1595 1594 1594 1595 1595 1595 1595 1596 1596 1597
1535 1534 1539 1539 1538 1539 1540 1542 1546 1547 1549 1552 1552 1554 1560 1564 1568 1571 1574 1577 1578 1579 1581 1583 1583 1584 1586 1588 1589 1590 1591 1592 1593 1594 1595 1596 1596 1596 1596 1595 1595 1595 1595 1596 1596 1596 1596 1597 1598
1533 1535 1539 1538 1536 1537 1540 1541 1545 1549 1551 1554 1553 1559 1563 1566 1567 1571 1574 1577 1579 1579 1581 1583 1584 1585 1587 1589 1589 1591 1592 1593 1594 1595 1596 1597 1596 1596 1595 1595 1594 1591 1591 1587 1594 1596 1596 1596 1597
1533 1536 1536 1536 1534 1536 1539 1542 1545 1548 1551 1553 1550 1555 1561 1565 1566 1571 1576 1578 1577 1579 1580 1582 1584 1586 1588 1588 1590 1591 1592 1593 1594 1596 1597 1597 1596 1596 1594 1593 1593 1591 1590 1588 1590 1593 1596 1596 1597
1534 1536 1534 1535 1534 1537 1540 1543 1546 1549 1550 1551 1556 1558 1559 1564 1568 1572 1575 1576 1578 1579 1580 1582 1584 1586 1586 1588 1590 1591 1593 1594 1595 1596 1596 1596 1596 1595 1593 1591 1590 1589 1584 1587 1590 1593 1595 1596 1597
1530 1532 1532 1533 1532 1536 1539 1543 1546 1550 1549 1551 1556 1561 1564 1568 1571 1573 1574 1576 1578 1578 1580 1581 1584 1585 1586 1588 1589 1591 1593 1594 1595 1596 1596 1596 1596 1595 1593 1592 1590 1589 1588 1588 1590 1592 1594 1595 1597
1528 1529 1529 1531 1533 1535 1538 1543 1543 1552 1552 1552 1556 1560 1565 1567 1569 1572 1572 1574 1577 1578 1580 1582 1583 1585 1586 1588 1590 1592 1593 1594 1595 1596 1595 1596 1596 1595 1594 1592 1591 1589 1588 1587 1589 1591 1592 1595 1596
1527 1529 1531 1532 1534 1537 1538 1544 1544 1550 1552 1555 1558 1560 1565 1568 1568 1570 1571 1573 1575 1578 1580 1582 1583 1585 1586 1588 1590 1591 1592 1594 1594 1595 1595 1596 1595 1595 1594 1592 1591 1589 1588 1587 1588 1590 1592 1594 1595
1527 1526 1532 1536 1534 1539 1538 1546 1547 1552 1552 1556 1561 1563 1562 1565 1566 1569 1571 1573 1575 1577 1578 1581 1583 1585 1587 1588 1589 1591 1592 1593 1594 1595 1595 1595 1595 1595 1594 1592 1590 1588 1587 1586 1587 1589 1591 1593 1595
1532 1540 1537 1536 1533 1535 1538 1544 1546 1550 1554 1556 1559 1562 1564 1565 1565 1567 1569 1572 1574 1576 1578 1579 1581 1583 1585 1588 1589 1590 1591 1592 1593 1594 1595 1595 1595 1594 1593 1591 1589 1588 1587 1586 1587 1589 1592 1593 1595
1535 1538 1539 1541 1536 1536 1539 1542 1546 1549 1551 1554 1557 1560 1562 1563 1562 1565 1567 1570 1572 1575 1577 1579 1580 1582 1585 1587 1588 1589 1590 1592 1593 1594 1594 1595 1595 1594 1592 1591 1591 1590 1588 1587 1588 1590 1593 1594 1596
1528 1529 1533 1534 1533 1536 1537 1540 1543 1547 1550 1553 1556 1558 1559 1559 1562 1564 1566 1568 1571 1573 1574 1577 1579 1581 1583 1585 1586 1587 1589 1591 1592 1593 1594 1594 1595 1594 1593 1591 1591 1591 1590 1589 1589 1591 1593 1595 1597
1528 1530 1529 1533 1533 1533 1537 1539 1541 1544 1545 1548 1553 1556 1557 1558 1560 1561 1563 1565 1567 1570 1572 1574 1577 1579 1582 1584 1585 1586 1588 1589 1591 1592 1593 1593 1594 1593 1593 1592 1591 1591 1591 1591 1591 1591 1593 1596 1597
1527 1525 1525 1528 1534 1533 1536 1543 1543 1542 1546 1548 1551 1553 1555 1555 1558 1560 1561 1562 1564 1566 1567 1570 1573 1577 1580 1583 1584 1584 1585 1587 1589 1591 1592 1592 1593 1592 1592 1592 1592 1592 1592 1592 1593 1593 1594 1595 1596
1525 1518 1520 1528 1534 1542 1538 1544 1542 1537 1541 1543 1544 1547 1550 1551 1554 1557 1559 1560 1560 1561 1565 1567 1570 1574 1577 1580 1582 1583 1584 1586 1588 1589 1590 1591 1591 1592 1592 1591 1591 1591 1592 1593 1593 1594 1595 1595 1596
1524 1516 1521 1528 1534 1537 1542 1546 1534 1536 1537 1534 1537 1541 1545 1547 1549 1551 1553 1555 1556 1559 1561 1564 1566 1570 1574 1577 1579 1580 1581 1583 1585 1588 1589 1589 1590 1591 1591 1591 1591 1590 1591 1592 1593 1594 1595 1596 1598
1521 1523 1528 1531 1532 1542 1545 1542 1528 1534 1528 1527 1533 1537 1541 1543 1545 1546 1549 1551 1554 1556 1558 1560 1562 1565 1569 1572 1575 1577 1579 1581 1583 1586 1588 1589 1589 1590 1590 1590 1590 1590 1591 1592 1593 1594 1596 1596 1597
1519 1519 1539 1545 1543 1546 1544 1545 1525 1521 1523 1525 1527 1533 1536 1538 1540 1543 1545 1547 1550 1553 1556 1557 1559 1562 1565 1568 1571 1574 1576 1578 1580 1583 1586 1587 1588 1589 1590 1590 1589 1589 1590 1591 1592 1593 1594 1594 1595
1517 1516 1522 1550 1547 1541 1541 1540 1521 1520 1524 1526 1528 1531 1533 1534 1537 1540 1543 1544 1547 1550 1553 1555 1556 1559 1562 1565 1568 1570 1573 1575 1577 1580 1583 1585 1586 1587 1588 1589 1590 1590 1590 1591 1591 1591 1591 1592 1593
1513 1520 1519 1534 1549 1543 1538 1529 1520 1518 1525 1526 1527 1529 1531 1532 1533 1537 1540 1542 1544 1546 1548 1551 1554 1557 1559 1562 1565 1567 1570 1572 1574 1577 1579 1582 1584 1585 1586 1587 1589 1589 1589 1590 1590 1590 1589 1590 1590
1505 1514 1522 1522 1547 1548 1536 1538 1526 1519 1525 1526 1528 1528 1530 1531 1533 1535 1537 1538 1540 1542 1544 1547 1549 1553 1556 1559 1561 1564 1566 1569 1571 1574 1576 1578 1581 1582 1583 1584 1586 1587 1588 1588 1588 1588 1589 1589 1589
1511 1511 1522 1521 1531 1531 1537 1525 1520 1520 1525 1526 1527 1528 1529 1530 1531 1532 1533 1534 1536 1538 1540 1543 1545 1549 1552 1555 1558 1560 1563 1565 1568 1570 1572 1574 1577 1579 1581 1581 1582 1584 1585 1585 1585 1586 1587 1587 1586
1505 1509 1506 1514 1534 1534 1527 1525 1523 1522 1525 1527 1527 1529 1528 1527 1528 1528 1528 1529 1531 1534 1537 1539 1541 1543 1546 1550 1554 1556 1559 1561 1563 1565 1568 1570 1572 1575 1576 1577 1579 1581 1581 1581 1581 1583 1583 1583 1583
Wind_Speed
8 5 2 2 0 1 4 5 4 10 7 0 11 3 8 7 4 4 29 21 17 16 15 12 11 14 12 15 16 17 16 15 15 17 16 17 16 14 13 12 12 11 12 13 13 12 13 14 12
6 4 3 1 2 4 3 2 10 4 9 15 12 8 7 4 6 23 24 24 23 17 15 13 12 12 12 14 16 16 15 16 16 16 15 14 14 13 12 11 11 12 12 13 11 11 10 11 11
5 3 2 2 2 3 3 4 8 13 9 6 5 9 5 3 22 32 25 26 20 18 16 15 13 13 13 14 15 16 15 16 16 16 14 13 12 13 13 13 12 11 11 10 10 10 9 9 9
3 0 0 1 8 3 2 9 17 14 9 6 11 8 6 10 21 23 28 25 21 18 17 15 13 12 14 13 14 16 16 16 16 15 13 12 10 11 12 13 11 9 9 8 7 8 9 9 8
3 1 1 4 6 3 7 13 7 5 6 7 4 6 11 14 15 28 25 22 23 18 16 15 12 12 12 13 13 14 14 14 14 13 10 9 8 8 9 10 8 7 6 5 5 5 6 6 6
0 0 3 3 6 6 6 4 5 7 8 10 16 16 5 12 27 27 22 22 20 19 15 14 12 11 10 11 11 12 12 11 11 9 7 6 5 5 6 7 6 6 5 4 4 5 6 4 4
0 1 3 5 7 4 3 3 5 8 11 11 16 9 11 22 28 27 25 25 20 17 12 11 10 11 10 10 10 10 9 9 8 6 5 4 4 3 4 3 4 4 4 3 3 3 4 5 3
1 0 3 3 4 4 4 4 12 9 11 13 18 8 15 28 34 31 27 18 15 16 13 10 10 9 8 10 9 10 8 8 7 6 5 4 3 2 1 2 1 1 3 4 4 3 2 2 3
0 1 5 4 1 5 8 6 4 6 15 5 2 23 27 30 31 26 23 19 16 16 14 10 9 8 8 9 10 9 8 7 6 6 4 4 3 2 2 1 2 3 3 3 3 4 3 3 3
1 4 4 5 4 5 9 8 8 9 7 10 22 24 28 27 29 27 21 17 15 17 15 11 9 9 9 10 9 8 7 6 6 5 3 3 1 2 3 5 4 6 8 7 4 4 5 4 3
3 3 1 9 6 13 14 7 7 17 4 13 32 36 33 32 28 24 20 16 16 16 14 12 10 10 10 9 9 8 6 6 5 4 2 2 3 5 6 7 7 8 8 4 7 8 5 6 5
5 8 5 7 9 9 10 9 9 12 1 19 26 32 33 29 23 21 19 18 18 17 14 13 12 12 11 10 9 8 6 4 4 2 1 3 5 5 6 8 7 8 11 5 3 8 8 8 7
6 6 6 9 12 10 10 6 6 7 6 24 26 28 27 24 21 18 18 19 18 16 15 13 12 12 11 11 10 9 6 4 2 2 2 4 6 8 9 11 10 11 11 4 3 6 7 8 6
4 7 10 12 12 10 9 9 11 6 15 25 27 26 25 23 23 17 19 18 17 16 15 13 13 11 11 11 11 9 5 3 0 3 4 6 7 8 9 11 12 12 10 4 4 3 9 8 6
5 3 7 10 4 6 8 6 1 17 17 22 23 23 21 21 18 17 16 15 14 16 17 16 13 13 14 13 11 7 4 2 2 4 6 6 6 7 8 10 11 11 9 5 2 4 7 7 7
6 4 2 2 5 4 3 3 7 16 20 21 18 17 20 21 20 17 15 13 13 16 20 17 16 15 14 12 8 6 5 3 1 4 5 5 5 8 8 9 10 11 10 3 3 8 8 7 7
5 2 4 4 3 5 1 3 10 16 16 19 18 17 16 17 20 19 17 15 13 14 18 19 17 15 12 11 10 8 7 5 2 4 3 4 6 8 10 9 10 11 11 6 4 10 10 8 6
4 2 4 3 2 3 7 4 11 16 18 19 18 17 17 19 21 21 19 17 15 14 13 14 16 15 13 13 12 10 10 7 4 4 4 6 6 9 10 9 8 10 11 8 7 10 10 8 7
6 9 5 2 4 3 5 7 13 18 16 16 18 20 19 19 17 19 20 18 18 16 16 15 16 14 14 14 15 14 11 9 7 5 4 5 6 8 9 8 7 7 8 8 7 8 8 8 6
9 9 9 3 4 2 4 4 11 19 20 21 19 19 20 21 18 20 19 19 20 19 18 17 18 18 16 16 13 12 11 10 8 5 5 6 5 6 8 8 4 4 4 7 8 10 10 8 7
6 11 8 4 5 3 3 4 11 12 15 16 18 19 21 22 21 20 20 22 22 22 21 19 18 18 19 17 14 12 11 9 7 7 8 5 4 5 7 7 4 1 2 3 5 7 7 5 5
3 5 8 11 9 3 1 1 6 13 15 18 23 24 23 23 23 20 20 22 24 21 20 20 19 19 20 19 16 12 10 10 7 7 8 9 7 6 6 6 4 1 0 2 2 3 4 4 4
4 9 12 9 4 2 3 3 2 8 15 19 23 23 23 20 20 20 22 19 21 21 17 17 20 20 20 21 18 15 12 12 10 7 5 5 5 5 7 7 4 2 3 1 1 4 4 4 3
14 15 11 4 1 3 2 3 2 6 10 13 19 22 22 21 18 19 22 19 17 19 18 16 17 18 18 19 20 18 15 12 14 11 8 5 5 5 6 7 4 3 4 4 3 4 5 5 4
2 5 3 1 2 1 1 3 5 5 4 3 8 14 20 20 22 18 22 22 20 20 19 16 14 17 18 18 19 19 18 14 14 15 10 11 8 7 5 5 3 1 5 5 5 6 7 8 8
13 4 2 2 2 3 3 3 2 3 6 6 5 6 8 13 20 20 18 21 21 21 21 20 16 13 17 18 17 16 17 17 15 16 14 11 10 7 7 6 5 3 3 5 5 5 8 11 11
7 4 2 6 1 3 1 2 6 7 10 7 8 8 4 8 11 14 21 21 22 21 21 22 19 15 15 15 16 16 18 18 16 15 16 13 11 9 9 7 6 6 6 6 7 7 7 9 10
3 9 4 2 2 3 2 3 0 5 11 10 9 9 8 5 5 6 8 18 21 24 22 23 24 22 16 13 16 17 15 18 15 14 15 14 14 13 11 11 10 10 9 10 9 8 8 8 9
5 4 6 4 2 2 1 2 2 2 10 9 12 9 6 4 6 12 14 12 18 18 22 23 24 26 27 22 18 18 17 16 19 17 15 15 15 15 14 14 14 15 14 13 15 12 12 11 10
1 2 4 4 5 0 2 3 2 3 5 6 7 5 5 4 4 10 12 12 15 19 17 17 18 23 27 28 25 22 21 20 18 20 18 16 18 18 17 17 18 19 18 17 16 16 14 15 15
Wind_Direction
112 107 90 36 36 21 51 65 88 123 133 179 145 129 106 55 30 116 142 140 145 137 128 127 125 124 131 142 139 132 132 123 114 113 114 106 102 104 105 104 103 105 104 101 100 96 98 108 106
120 91 56 12 59 84 67 82 117 99 115 116 86 93 59 74 105 144 149 152 156 142 136 122 121 128 129 136 143 137 132 123 117 111 109 105 102 99 98 111 104 105 105 105 104 104 101 108 111
107 56 11 41 60 68 100 105 112 113 119 130 96 69 62 74 130 143 153 149 148 143 134 123 122 126 126 128 135 135 134 128 124 118 110 103 99 94 90 109 106 104 99 98 97 100 100 114 116
100 236 86 44 67 48 58 117 124 125 101 73 113 72 70 135 137 152 155 148 147 145 138 130 129 132 132 130 129 133 135 134 129 121 114 104 98 94 91 104 108 111 103 101 99 106 105 108 110
168 345 63 85 67 54 100 125 129 109 107 116 117 105 107 147 153 149 146 148 149 149 142 136 137 130 130 138 134 132 133 135 130 123 110 102 94 87 102 106 112 112 111 110 100 122 123 111 95
250 223 69 92 97 102 98 97 108 101 120 119 116 116 103 150 145 146 151 148 158 145 139 138 141 132 134 135 140 140 145 143 137 132 121 109 101 94 103 111 119 122 125 124 114 114 150 136 98
284 73 85 107 115 127 102 80 84 107 116 116 133 110 131 150 152 158 156 161 147 139 141 146 146 138 139 142 138 140 145 144 142 133 127 116 102 95 103 112 128 138 148 165 152 121 128 160 134
163 340 105 77 159 101 134 96 111 106 96 132 124 142 154 162 163 160 162 177 160 159 168 161 149 137 143 149 144 135 139 135 137 135 122 116 97 75 77 92 78 156 185 182 191 180 168 143 156
73 84 62 39 323 123 152 126 59 102 128 107 113 143 151 156 158 172 179 182 174 176 173 176 148 142 147 150 151 150 145 147 148 128 121 112 88 58 20 323 309 320 300 252 217 197 211 203 183
94 71 54 7 290 158 143 131 120 140 125 95 116 134 147 158 167 177 181 184 186 185 185 171 166 162 157 158 154 159 157 150 148 122 101 92 39 338 327 318 298 295 254 222 233 225 215 221 200
55 94 233 10 57 144 146 122 114 152 147 162 151 152 154 160 171 178 182 190 189 184 188 182 175 164 164 155 153 159 159 154 152 132 111 46 352 337 330 335 298 302 300 272 229 223 213 234 225
124 63 71 31 90 128 152 133 105 162 196 168 157 158 158 166 172 181 183 187 187 182 182 178 179 173 161 157 160 159 160 158 162 189 290 333 346 352 343 342 335 309 320 258 245 207 238 219 221
134 156 119 78 94 159 151 139 136 204 155 161 154 158 162 169 179 185 184 188 189 189 190 185 179 172 166 167 167 154 145 122 124 229 316 331 327 330 339 353 345 341 340 275 322 222 222 208 215
193 131 158 77 83 124 154 141 126 160 148 161 163 168 171 169 176 181 192 195 195 192 190 176 171 166 164 167 162 161 148 132 50 313 318 322 335 342 338 351 352 346 345 311 243 250 202 201 208
305 107 150 73 51 88 133 138 121 151 151 163 170 173 176 180 186 193 194 195 188 187 182 176 174 171 166 165 169 170 169 159 4 326 313 321 345 345 346 353 353 347 338 311 208 181 165 176 180
338 84 86 53 85 66 119 83 116 154 149 165 182 188 187 183 190 193 194 191 188 187 185 183 182 179 184 184 185 200 210 190 315 351 336 315 338 351 348 346 354 353 357 354 186 177 168 164 169
36 26 336 354 75 128 102 99 156 164 166 168 184 196 200 200 198 198 202 200 196 189 192 198 198 196 195 197 214 224 218 214 289 358 348 356 357 359 355 347 351 7 15 33 142 170 170 166 154
330 207 252 265 79 157 139 128 163 178 171 177 188 197 206 205 208 198 202 203 203 205 202 206 214 213 214 219 224 229 231 234 259 337 325 314 338 355 358 359 3 13 30 52 117 155 166 172 177
271 265 243 166 176 197 199 164 173 186 186 188 200 199 207 217 208 208 204 206 213 215 219 217 221 222 227 232 234 236 240 243 266 292 287 305 336 348 357 359 10 25 41 62 101 139 153 166 171
245 249 257 97 155 265 152 166 183 187 200 194 209 215 218 219 221 222 223 223 223 222 224 228 233 233 235 238 242 244 247 251 252 267 258 293 321 338 356 356 357 33 63 78 101 122 142 150 145
220 212 215 196 151 65 149 175 178 203 211 211 217 227 230 233 229 224 227 227 230 232 225 229 236 240 239 239 241 244 243 235 233 261 267 265 291 325 344 343 329 356 74 114 117 124 136 151 161
236 231 205 157 174 229 285 344 201 191 206 217 218 222 233 237 238 236 232 239 235 229 235 237 240 241 240 236 236 240 240 224 238 261 260 256 275 289 318 335 339 266 175 176 156 152 152 157 165
32 131 158 148 151 203 133 251 137 189 214 216 218 222 227 232 234 233 232 236 236 229 221 229 242 242 239 237 236 235 237 223 225 241 251 246 265 265 293 318 310 282 212 190 220 202 182 163 155
128 110 104 94 194 257 68 282 176 190 227 230 218 220 224 227 235 233 233 230 224 226 217 222 230 229 227 231 235 236 239 238 231 234 249 256 268 282 300 310 302 244 216 230 235 222 217 217 223
177 195 104 122 227 306 130 234 287 263 174 142 183 210 220 227 230 232 229 227 219 222 222 220 233 235 227 231 235 236 238 244 239 233 255 260 268 278 288 291 331 288 222 236 247 247 244 240 235
200 252 264 332 303 354 186 240 95 345 120 142 180 180 195 213 222 221 227 231 229 228 225 229 236 246 244 235 237 240 237 239 242 237 246 261 249 255 263 274 296 300 261 252 258 262 249 247 255
167 195 74 109 140 271 335 274 271 47 115 176 186 177 182 203 199 217 229 238 235 231 236 238 239 243 247 249 244 247 241 239 244 244 244 247 247 256 246 255 287 289 268 271 268 269 257 251 252
245 132 169 93 171 256 252 279 9 30 73 107 123 114 102 120 155 196 250 236 240 237 239 239 245 245 243 245 252 256 248 240 241 242 240 244 247 249 256 253 268 280 294 268 263 265 264 252 247
147 168 68 103 308 274 281 77 204 120 91 88 92 66 73 96 184 226 246 242 235 241 242 247 247 246 246 242 242 251 261 252 243 244 246 251 255 254 258 265 265 270 276 289 265 260 259 261 256
23 119 190 228 189 233 311 99 34 191 80 58 56 57 8 358 286 261 251 235 230 231 241 245 249 248 249 250 248 250 248 256 254 249 250 253 257 260 261 264 267 268 272 271 272 262 260 260 263